FW6401 Weather Reports


Display with metric or nautical units.
time (UTC)temp
F
wind
direction
speed
MPH
gust
MPH
rain 1hr
in
rain 24hr
in
rain mn
in
humidity
%
barometer
mb
20260505124526 66 228 10.0 19.0 0.00 0.10 0.00 56 1006.0
20260505123021 64 215 6.0 13.0 0.00 0.10 0.00 59 1006.3
20260505121530 62 201 6.0 14.0 0.00 0.10 0.00 61 1006.1
20260505120014 59 173 3.0 10.0 0.00 0.10 0.00 67 1006.4
20260505114510 55 178 4.0 8.0 0.00 0.10 0.00 73 1006.3
20260505113008 53 137 2.0 5.0 0.00 0.10 0.00 82 1006.6
20260505111508 52 298 1.0 3.0 0.00 0.10 0.00 81 1006.6
20260505101504 49 178 4.0 8.0 0.00 0.10 0.00 77 1006.4
20260505100009 50 216 3.0 8.0 0.00 0.10 0.00 76 1006.4
20260505094501 53 194 8.0 19.0 0.00 0.10 0.00 69 1006.5
20260505093102 51 177 4.0 11.0 0.00 0.10 0.00 73 1006.7
20260505091611 51 165 6.0 10.0 0.00 0.10 0.00 72 1006.6
20260505090105 51 185 4.0 10.0 0.00 0.10 0.00 72 1006.8
20260505084559 52 190 3.0 7.0 0.00 0.10 0.00 71 1006.8
20260505083101 52 137 4.0 11.0 0.00 0.10 0.00 70 1007.0
20260505081559 49 192 5.0 10.0 0.00 0.10 0.00 75 1007.1
20260505080052 50 181 5.0 10.0 0.00 0.10 0.00 72 1007.2
20260505074551 50 184 4.0 8.0 0.00 0.10 0.00 72 1007.2
20260505073049 50 190 6.0 10.0 0.00 0.10 0.00 71 1007.2
20260505071551 51 165 6.0 10.0 0.00 0.10 0.00 70 1007.1
20260505070047 51 172 6.0 9.0 0.00 0.10 0.00 70 1007.4
20260505064549 51 182 3.0 8.0 0.00 0.10 0.00 70 1007.4
20260505063045 51 180 4.0 8.0 0.00 0.10 0.00 69 1007.6
20260505061543 51 191 5.0 9.0 0.00 0.10 0.00 70 1007.7
20260505060041 50 168 5.0 8.0 0.00 0.10 0.00 71 1007.5
20260505054546 49 174 5.0 9.0 0.00 0.10 0.00 74 1007.3
20260505053037 47 165 4.0 7.0 0.00 0.10 0.00 78 1007.5
20260505051537 46 161 4.0 7.0 0.00 0.10 0.00 82 1007.6
20260505041527 47 160 4.0 7.0 0.00 0.10 0.00 79 1007.5
20260505040023 49 154 4.0 7.0 0.00 0.10 0.00 76 1007.3
20260505034524 51 175 4.0 10.0 0.00 0.10 0.10 73 1007.1
20260505033033 55 190 4.0 9.0 0.00 0.10 0.10 65 1007.2
20260505031522 53 180 5.0 8.0 0.00 0.10 0.10 68 1007.1
20260505030021 55 190 5.0 9.0 0.00 0.10 0.10 64 1007.0
20260505024527 56 198 5.0 11.0 0.00 0.10 0.10 59 1007.1
20260505023028 57 175 4.0 12.0 0.00 0.10 0.10 58 1007.1
20260505021519 59 209 7.0 11.0 0.00 0.10 0.10 51 1007.2
20260505020020 60 165 7.0 17.0 0.00 0.10 0.10 49 1007.4
20260505014532 61 151 6.0 16.0 0.00 0.10 0.10 47 1007.3
20260505013018 61 225 7.0 16.0 0.00 0.10 0.10 49 1007.3
20260505011517 60 226 9.0 18.0 0.00 0.10 0.10 49 1007.3
20260505010020 60 193 8.0 16.0 0.00 0.10 0.10 50 1007.2
20260505004518 61 198 8.0 20.0 0.00 0.10 0.10 50 1007.0
20260505003015 60 177 6.0 15.0 0.00 0.10 0.10 50 1006.7
20260505001515 59 195 6.0 12.0 0.00 0.10 0.10 52 1006.6
20260505000015 59 188 4.0 12.0 0.00 0.10 0.10 60 1006.4
20260504234512 60 213 4.0 10.0 0.00 0.10 0.10 55 1006.2
20260504233012 61 217 3.0 10.0 0.00 0.10 0.10 51 1006.0
20260504231511 61 190 4.0 10.0 0.00 0.10 0.10 53 1005.9
20260504230011 61 182 2.0 4.0 0.00 0.10 0.10 59 1005.7
20260504224510 62 289 1.0 4.0 0.00 0.10 0.10 54 1005.6
20260504223010 63 309 2.0 8.0 0.00 0.10 0.10 50 1005.5
20260504221511 63 341 2.0 12.0 0.00 0.10 0.10 50 1005.5
20260504220009 63 324 5.0 12.0 0.00 0.10 0.10 50 1005.5
20260504214507 62 295 7.0 15.0 0.00 0.10 0.10 52 1005.6
20260504213009 63 321 6.0 11.0 0.00 0.10 0.10 55 1005.6
20260504211513 62 266 5.0 10.0 0.00 0.10 0.10 57 1005.8
20260504210107 61 320 4.0 13.0 0.00 0.10 0.10 60 1005.8
20260504204618 60 319 5.0 10.0 0.00 0.10 0.10 61 1005.9
20260504203129 60 292 4.0 10.0 0.00 0.10 0.10 62 1006.1
20260504201553 59 349 7.0 12.0 0.00 0.10 0.10 66 1006.1
20260504200052 58 298 2.0 11.0 0.00 0.10 0.10 66 1006.2
20260504194548 57 300 4.0 13.0 0.00 0.10 0.10 68 1006.4
20260504193045 56 276 6.0 11.0 0.00 0.10 0.10 69 1006.7
20260504191543 55 314 9.0 14.0 0.00 0.10 0.10 74 1006.9
20260504190039 54 302 5.0 11.0 0.00 0.10 0.10 75 1007.1
20260504184538 52 323 4.0 10.0 0.00 0.10 0.10 83 1007.3
20260504183038 53 5 1.0 5.0 0.00 0.10 0.10 81 1007.3
20260504181538 52 340 3.0 6.0 0.00 0.10 0.10 81 1007.3
20260504180037 49 350 3.0 5.0 0.00 0.10 0.10 88 1007.5
20260504174538 47 355 0.0 2.0 0.00 0.10 0.10 91 1007.7
20260504173039 46 59 0.0 1.0 0.00 0.10 0.10 94 1007.8
20260504171537 46 59 0.0 3.0 0.01 0.10 0.10 94 1007.8